Oldest pages

Jump to navigation Jump to search

Showing below up to 100 results in range #1 to #100.

View (previous 100 | next 100) (20 | 50 | 100 | 250 | 500)

  1. Health and Safety Laboratory‏‎ (14:35, 19 February 2008)
  2. Current events‏‎ (14:41, 19 February 2008)
  3. Licensing‏‎ (18:34, 19 February 2008)
  4. Glossary-url‏‎ (18:49, 19 February 2008)
  5. Contributing‏‎ (10:03, 20 February 2008)
  6. Podcasts-url‏‎ (12:05, 20 February 2008)
  7. Stat-of-the-Art Review: Combustion‏‎ (14:25, 20 May 2008)
  8. Magnox Electric‏‎ (10:57, 21 May 2008)
  9. EDF - R&D Division‏‎ (10:59, 21 May 2008)
  10. Fluent Europe Ltd‏‎ (11:01, 21 May 2008)
  11. British Nuclear Fuels (BNFL)‏‎ (13:17, 21 May 2008)
  12. Martin-Luther-Universitat Halle-Wittenberg‏‎ (13:19, 21 May 2008)
  13. Rolls-Royce Marine Power, Engineering & Technology Division‏‎ (13:19, 21 May 2008)
  14. British Energy‏‎ (13:20, 21 May 2008)
  15. State-of-the-Art Review: Editing Turbomachinery, Internal Flow‏‎ (14:25, 21 May 2008)
  16. Turbomachinery, Internal Flow‏‎ (16:20, 21 May 2008)
  17. NUMECA International‏‎ (10:09, 22 May 2008)
  18. SNECMA Moteurs‏‎ (10:10, 22 May 2008)
  19. AEA Technology‏‎ (10:10, 22 May 2008)
  20. NTUA‏‎ (10:11, 22 May 2008)
  21. Vattenfall Utveckling AB‏‎ (10:12, 22 May 2008)
  22. MAN Turbomaschinen AG Schweiz‏‎ (10:13, 22 May 2008)
  23. Sulzer Innotec AG‏‎ (10:13, 22 May 2008)
  24. Czech Academy of Sciences‏‎ (10:15, 22 May 2008)
  25. Rolls Royce Deutschland‏‎ (10:48, 22 May 2008)
  26. ABB Alstom Power UK‏‎ (10:49, 22 May 2008)
  27. Cranfield University‏‎ (08:00, 23 May 2008)
  28. University of Surrey‏‎ (08:01, 23 May 2008)
  29. ALSTOM Power (Switzerland) Ltd‏‎ (08:02, 23 May 2008)
  30. CEA / DRN / Department de Thermohydraulique‏‎ (08:50, 23 May 2008)
  31. Fachhochschule Niederrhein‏‎ (08:51, 23 May 2008)
  32. Arup‏‎ (10:03, 30 May 2008)
  33. Mott MacDonald Ltd‏‎ (10:05, 30 May 2008)
  34. CIMNE‏‎ (10:05, 30 May 2008)
  35. University of Southampton‏‎ (10:11, 30 May 2008)
  36. ESDU‏‎ (14:52, 2 June 2008)
  37. Universita di Roma 'La Sapienza'‏‎ (14:54, 2 June 2008)
  38. NCSR Demokritos‏‎ (08:29, 3 June 2008)
  39. CEA Saclay, DMT‏‎ (08:33, 3 June 2008)
  40. HR Wallingford Ltd‏‎ (08:34, 3 June 2008)
  41. Advice‏‎ (08:55, 4 June 2008)
  42. RENAULT‏‎ (09:37, 4 June 2008)
  43. Computational Dynamics Ltd‏‎ (09:39, 4 June 2008)
  44. Atkins‏‎ (09:40, 4 June 2008)
  45. Universität Karlsruhe‏‎ (09:41, 4 June 2008)
  46. CIRA‏‎ (09:46, 4 June 2008)
  47. Qinetiq‏‎ (09:47, 4 June 2008)
  48. SNPE Propulsion‏‎ (09:47, 4 June 2008)
  49. Université de Poitiers‏‎ (09:48, 4 June 2008)
  50. CFS Engineering SA‏‎ (09:49, 4 June 2008)
  51. Universita di Firenze‏‎ (09:49, 4 June 2008)
  52. Technical University of Czestochowa‏‎ (09:50, 4 June 2008)
  53. MTU Aero Engines‏‎ (09:50, 4 June 2008)
  54. Vrije Universiteit Brussel‏‎ (09:51, 4 June 2008)
  55. Aero Acoustic Test‏‎ (09:10, 15 August 2008)
  56. DOAP’s‏‎ (09:32, 3 September 2008)
  57. DOAP‏‎ (10:58, 3 September 2008)
  58. (DOAP)‏‎ (16:29, 10 September 2008)
  59. Qulaity Review AC6-04‏‎ (10:15, 2 October 2008)
  60. DOAPs‏‎ (12:23, 13 February 2009)
  61. David Fowler Feedback‏‎ (12:14, 17 February 2009)
  62. ERC MW Info‏‎ (14:38, 20 February 2009)
  63. Test LockDown‏‎ (17:09, 24 February 2009)
  64. Test LD AA‏‎ (17:14, 24 February 2009)
  65. Test LD RAE‏‎ (17:15, 24 February 2009)
  66. Test LD L1T2‏‎ (17:18, 24 February 2009)
  67. Test Let1‏‎ (18:41, 12 March 2009)
  68. Test ACA380‏‎ (09:37, 13 March 2009)
  69. Description AC 1 1‏‎ (10:35, 13 March 2009)
  70. Test AC CFDSim‏‎ (12:02, 14 March 2009)
  71. Test AC1‏‎ (19:48, 14 March 2009)
  72. TopicTest‏‎ (08:58, 15 March 2009)
  73. Abstract AC 2 02‏‎ (18:08, 15 March 2009)
  74. Abstract AC 123 01‏‎ (18:20, 15 March 2009)
  75. Terms and Conditions‏‎ (18:26, 15 March 2009)
  76. Abstract AC 123 02‏‎ (18:29, 15 March 2009)
  77. Dave Test Topic‏‎ (12:20, 16 March 2009)
  78. Abstract AC 123 03‏‎ (12:22, 16 March 2009)
  79. January 2009‏‎ (12:40, 16 March 2009)
  80. Abstract AC 123 05‏‎ (19:13, 18 March 2009)
  81. Abstract AC 123 08‏‎ (11:13, 19 March 2009)
  82. CFD Simulations AC 123 08‏‎ (11:17, 19 March 2009)
  83. Test Data AC 123 08‏‎ (11:18, 19 March 2009)
  84. Evaluation AC 123 08‏‎ (11:22, 19 March 2009)
  85. Related UFRs AC 123 08‏‎ (11:24, 19 March 2009)
  86. Best Practice AC 123 08‏‎ (11:27, 19 March 2009)
  87. Best Practice Advice AC 123 08‏‎ (11:36, 19 March 2009)
  88. Description AC 123 10‏‎ (11:54, 19 March 2009)
  89. CFD Simulations AC 123 10‏‎ (11:55, 19 March 2009)
  90. Test Data AC 123 10‏‎ (11:56, 19 March 2009)
  91. Related UFRs AC 123 10‏‎ (12:00, 19 March 2009)
  92. Abstract AC 123 11‏‎ (13:34, 19 March 2009)
  93. March 2009‏‎ (15:50, 19 March 2009)
  94. February 2009‏‎ (15:53, 19 March 2009)
  95. Abstract AC 123 12‏‎ (16:07, 19 March 2009)
  96. Description AC 123 12‏‎ (16:08, 19 March 2009)
  97. Ed Notes Cal‏‎ (15:00, 23 March 2009)
  98. Ercoftac Editorial Page/January 2009‏‎ (16:06, 23 March 2009)
  99. Ercoftac Editorial Page/Thursday January‏‎ (16:13, 23 March 2009)
  100. Description AC 51 57‏‎ (21:58, 16 April 2009)

View (previous 100 | next 100) (20 | 50 | 100 | 250 | 500)